Domov               UVHVVR             MKGP            O straneh              
ZDRAVSTVENO VARSTVO RASTLIN
  MREŽA AGROMET. POSTAJ
 ► PROGNOSTIČNA OBVESTILA
AGROMETEOROLOŠKI PODATKI -
ARSO
OBVLADOVANJE TVEGANJ ZARADI
NEUGODNIH VREMENSKIH RAZMER
  ► NARAVNE NESREČE
  ► SUŠA/MOČA
  ► NAMAKANJE
  ► ŽLED (gozdarstvo)
KARTOGRAFSKI PRIKAZI
SPLETNE POVEZAVE
PROJEKTI IN PUBLIKACIJE

AGROMETEOROLOŠKA MREŽA: VREMENSKE POSTAJE IN FENOLOŠKA OPAZOVANJA

Pregled podatkov za lokacijo Kasaze (Mirosan), meteorološka postaja 27394

Pregled senzorjev na lokaciji

ID Ime Zadnja
vrednost
Datum
zadnje
spremembe
Tip
senzorja
521 Temperatura 2 m ( °C) 15,46 °C 24.8.2017 08:30 Generic -40 - +60 °C
522 Relativna vlaga 2 m (% RH) 85,2 % RH 24.8.2017 08:30 Generic 0 - 100 %
546 Omočenost lista (U) 4 U 24.8.2017 08:30 A730WET
4028 Padavine 0.2 mm (mm) 0 mm 24.8.2017 08:30 Generic 0.2 mm

Pregled podatkov zadnjih 24 ur

Zap.
št.
Datum in čas Kasaze (Mirosan)
Omočenost
lista
Padavine
0.2
mm
Relativna
vlaga
2
m
Temperatura
2
m
0 24.8.2017 07:30 4 0 85,2 15,46
1 24.8.2017 07:00 9 0 98,46 13,7
2 24.8.2017 06:30 8 0 98,46 12,33
3 24.8.2017 06:00 7 0 98,29 11,31
4 24.8.2017 05:30 6 0 97,95 10,94
5 24.8.2017 05:00 6 0 97,85 11,23
6 24.8.2017 04:30 5 0 97,7 11,28
7 24.8.2017 04:00 5 0 97,39 11,36
8 24.8.2017 03:30 5 0 97,31 11,45
9 24.8.2017 03:00 5 0 97,12 11,62
10 24.8.2017 02:30 5 0 96,78 12,04
11 24.8.2017 02:00 5 0 96,51 12,21
12 24.8.2017 01:30 6 0 96,07 12,5
13 24.8.2017 01:00 7 0 95,46 12,7
14 24.8.2017 00:30 6 0 95,31 13,02
15 24.8.2017 00:00 4 0 94,53 13,26
16 23.8.2017 23:30 3 0 93,5 13,65
17 23.8.2017 23:00 1 0 91,55 14,16
18 23.8.2017 22:30 0 0 86,2 15,19
19 23.8.2017 22:00 0 0 83,22 15,58
20 23.8.2017 21:30 0 0 85,76 15,48
21 23.8.2017 21:00 0 0 82,05 16,61
22 23.8.2017 20:30 0 0 78,56 17,68
23 23.8.2017 20:00 0 0 72,6 18,75
24 23.8.2017 19:30 0 0 67,35 19,76
25 23.8.2017 19:00 0 0 64,4 20,85
26 23.8.2017 18:30 0 0 60,22 22,44
27 23.8.2017 18:00 0 0 53,89 23,74
28 23.8.2017 17:30 0 0 51,01 24,44
29 23.8.2017 17:00 0 0 50,21 25,54
30 23.8.2017 16:30 0 0 45,89 26,76
31 23.8.2017 16:00 0 0 44,84 27,18
32 23.8.2017 15:30 0 0 44,59 26,94
33 23.8.2017 15:00 0 0 44,96 26,35
34 23.8.2017 14:30 0 0 50,89 24,62
35 23.8.2017 14:00 0 0 48,6 25,49
36 23.8.2017 13:30 0 0 47,45 24,98
37 23.8.2017 13:00 0 0 55,09 23,52
38 23.8.2017 12:30 0 0 53,46 22,98
39 23.8.2017 12:00 0 0 52,5 23,13
40 23.8.2017 11:30 0 0 53,53 22,98
41 23.8.2017 11:00 0 0 49,77 23,25
42 23.8.2017 10:30 0 0 52,55 22,56
43 23.8.2017 10:00 0 0 51,53 21,73
44 23.8.2017 09:30 0 0 58,75 21,17
45 23.8.2017 09:00 0 0 62,34 20,1
© 2011 Ministrstvo za kmetijstvo, gozdarstvo in prehrano. Vse pravice pridržane.